Location: Cortada de Papelón
(10.0378°N, 66.9528°W)
Time: 22:34:13
(UTC+00:00)

USA 234 - Visible Passes

Search period start: 15 September 2024 00:00
Search period end: 25 September 2024 00:00
Orbit: 1100 x 1107 km, 123.0° (Epoch: 08 July)

Date Brightness Start Highest point End Pass type
(mag) Time Alt. Az. Time Alt. Az. Time Alt. Az.
15 Sep 4.5 00:28:31 17° S 00:32:46 35° SW 00:38:36 10° WNW visible
15 Sep 3.2 23:44:45 17° SE 23:50:04 88° SW 23:56:38 10° NW visible
16 Sep 5.6 01:32:10 12° SW 01:32:55 12° SW 01:35:10 10° WSW visible
16 Sep 3.9 23:01:34 10° ESE 23:07:29 37° NE 23:13:22 10° NNW visible
17 Sep 4.5 00:48:23 29° SSW 00:50:14 34° SW 00:56:03 10° WNW visible
18 Sep 3.2 00:04:35 36° SE 00:07:32 88° SW 00:14:05 10° NW visible
18 Sep 5.8 01:51:59 11° WSW 01:51:59 11° WSW 01:52:33 10° WSW visible
18 Sep 3.8 23:20:44 18° ESE 23:24:56 37° NE 23:30:50 10° NNW visible
19 Sep 4.5 01:08:08 34° WSW 01:08:08 34° WSW 01:13:30 10° WNW visible
20 Sep 3.1 00:24:16 73° SSE 00:24:59 87° SW 00:31:33 10° NW visible
20 Sep 3.8 23:40:21 31° E 23:42:24 38° NE 23:48:19 10° NNW visible
21 Sep 5.0 01:27:45 25° W 01:27:45 25° W 01:30:57 10° WNW visible
21 Sep 4.8 22:56:37 10° ENE 23:00:01 15° NE 23:03:25 10° NNE visible
22 Sep 3.5 00:43:48 60° NW 00:43:48 60° NW 00:49:01 10° NW visible
22 Sep 3.8 23:59:49 38° NE 23:59:51 38° NE 00:05:47 10° NNW visible
23 Sep 5.6 01:47:12 15° WNW 01:47:12 15° WNW 01:48:24 10° WNW visible
23 Sep 4.8 23:15:47 14° ENE 23:17:29 15° NE 23:20:54 10° NNE visible
24 Sep 4.5 01:03:10 33° NW 01:03:10 33° NW 01:06:29 10° NW visible
